User: anonymous   Login
Location: �chenoz-la-M�line
(47.6009°N, 6.1354°E)
Time: 08:14:00
(UTC+00:00)
Language:

STARLINK-2094 - Orbit

View from above orbital plane
View from above orbital plane
View from above satellite
View from above satellite

Ground track
Ground track

The orbit data is extracted from the following two-line orbital elements,

1 47375C 21005AC  21102.17013190  .00003622  00000-0  24264-3 0  1022
2 47375  53.0530 188.5378 0000792 118.2220 310.0146 15.06399525    19
Epoch (UTC): 12 April 2021 04:04:59
Eccentricity: 0.0000792
inclination: 53.0530°
perigee height: 546 km
apogee height: 548 km
right ascension of ascending node: 188.5378°
argument of perigee: 118.2220°
revolutions per day: 15.06399525
mean anomaly at epoch: 310.0146°
orbit number at epoch: 1

The dashed part of the orbit path shows where the satellite is in the earth's shadow,  

DLR